Location: Carrières
(48.9495°N, 2.0407°E)
Time: 15:31:41
(UTC+00:00)

Tiros 1 despin weight - Pass Details

Date: 26 April 2024
Orbit: 579 x 621 km, 48.2° (Epoch: 17 May)

Event Time Altitude Azimuth Distance (km) Brightness Sun altitude
Rises 15:50:50 0° 282° (WNW) 2,857 ? 29.7°
Reaches altitude 10° 15:53:22 10° 271° (W) 1,959 ? 29.3°
Maximum altitude 15:57:11 28° 213° (SSW) 1,167 ? 28.7°
Drops below altitude 10° 16:01:02 10° 155° (SSE) 1,972 ? 28.1°
Sets 16:03:35 0° 143° (SE) 2,879 ? 27.7°
